Orbital Elements at Epoch 2459000.5 (2020-May-31.0) TDB
Reference: JPL 19 (heliocentric ecliptic J2000)
Element | Value | Uncertainty (1-sigma) | Units |
e | .2358887713659588 | 5.3802e-08 | |
a | 2.790337947990178 | 1.4873e-08 | au |
q | 2.132128557742965 | 1.4734e-07 | au |
i | 8.661242756464288 | 4.2194e-06 | deg |
node | 153.7616143934378 | 3.5988e-05 | deg |
peri | 216.1430135235773 | 3.7207e-05 | deg |
M | 232.4286010756474 | 1.2073e-05 | deg |
tp | 2459603.801565434982 (2022-Jan-24.30156543) | 6.0229e-05 | TDB |
period | 1702.486336184038 4.66 | 1.3612e-05 3.727e-08 | d yr |
n | .2114554415789943 | 1.6907e-09 | deg/d |
Q | 3.448547338237391 | 1.8382e-08 | au |
|
| | Orbit Determination Parameters
Additional Information
|